,,PressureMeas_1m,,PRMeasQMR101_1,,RHStat155_1m_1,,SRMeasQMS101R_1m,,TAStat155_1m_1,,GenWind_1,,GenWind_1,
2017-04-05, 00:00:07,VALID,919.356,VALID,0.0,VALID,96.28,VALID,-0.018,VALID,19.889,VALID,308.0,VALID,0.095,
2017-04-05, 00:01:07,VALID,919.328,VALID,0.0,VALID,96.413,VALID,-0.031,VALID,19.88,VALID,323.0,VALID,0.142,
2017-04-05, 00:02:07,VALID,919.325,VALID,0.0,VALID,96.535,VALID,-0.021,VALID,19.889,VALID,340.0,VALID,0.243,
2017-04-05, 00:03:07,VALID,919.302,VALID,0.0,VALID,96.536,VALID,-0.012,VALID,19.869,VALID,351.0,VALID,0.442,
2017-04-05, 00:04:07,VALID,919.281,VALID,0.0,VALID,96.647,VALID,-0.012,VALID,19.873,VALID,8.0,VALID,0.609,
2017-04-05, 00:05:07,VALID,919.266,VALID,0.0,VALID,96.426,VALID,-0.003,VALID,19.862,VALID,356.0,VALID,0.745,
2017-04-05, 00:06:07,VALID,919.259,VALID,0.0,VALID,96.114,VALID,-0.01,VALID,19.851,VALID,360.0,VALID,0.828,
2017-04-05, 00:07:07,VALID,919.257,VALID,0.0,VALID,96.208,VALID,-0.02,VALID,19.888,VALID,358.0,VALID,0.423,
2017-04-05, 00:08:07,VALID,919.257,VALID,0.0,VALID,96.187,VALID,-0.019,VALID,19.907,VALID,353.0,VALID,0.212,
2017-04-05, 00:09:07,VALID,919.243,VALID,0.0,VALID,96.261,VALID,-0.027,VALID,19.925,VALID,353.0,VALID,0.083,
2017-04-05, 00:10:07,VALID,919.216,VALID,0.0,VALID,96.363,VALID,-0.006,VALID,19.94,VALID,353.0,VALID,0.0,
2017-04-05, 00:11:07,VALID,919.207,VALID,0.0,VALID,96.387,VALID,-0.028,VALID,19.95,VALID,353.0,VALID,0.0,
2017-04-05, 00:12:07,VALID,919.191,VALID,0.0,VALID,96.461,VALID,-0.018,VALID,19.968,VALID,353.0,VALID,0.0,
2017-04-05, 00:13:07,VALID,919.182,VALID,0.0,VALID,96.527,VALID,-0.006,VALID,19.98,VALID,347.0,VALID,0.019,
2017-04-05, 00:14:07,VALID,919.167,VALID,0.0,VALID,96.398,VALID,-0.019,VALID,19.972,VALID,337.0,VALID,0.0,
2017-04-05, 00:15:07,VALID,919.165,VALID,0.0,VALID,96.428,VALID,-0.005,VALID,19.982,VALID,337.0,VALID,0.0,
2017-04-05, 00:16:07,VALID,919.165,VALID,0.0,VALID,96.186,VALID,-0.018,VALID,19.976,VALID,324.0,VALID,0.0,
2017-04-05, 00:17:07,VALID,919.153,VALID,0.0,VALID,95.996,VALID,-0.004,VALID,19.974,VALID,299.0,VALID,0.021,
2017-04-05, 00:18:07,VALID,919.148,VALID,0.0,VALID,95.613,VALID,-0.011,VALID,19.966,VALID,258.0,VALID,0.184,
2017-04-05, 00:19:07,VALID,919.145,VALID,0.0,VALID,95.608,VALID,-0.005,VALID,19.965,VALID,255.0,VALID,0.196,
2017-04-05, 00:20:07,VALID,919.141,VALID,0.0,VALID,95.485,VALID,-0.001,VALID,19.949,VALID,250.0,VALID,0.204,
2017-04-05, 00:21:07,VALID,919.132,VALID,0.2,VALID,95.482,VALID,0.029,VALID,19.942,VALID,251.0,VALID,0.261,
2017-04-05, 00:22:07,VALID,919.117,VALID,0.0,VALID,95.379,VALID,0.017,VALID,19.95,VALID,258.0,VALID,0.26,
2017-04-05, 00:23:07,VALID,919.11,VALID,0.0,VALID,95.485,VALID,0.017,VALID,19.968,VALID,258.0,VALID,0.0,
2017-04-05, 00:24:07,VALID,919.085,VALID,0.0,VALID,95.962,VALID,0.03,VALID,20.011,VALID,258.0,VALID,0.001,
2017-04-05, 00:25:07,VALID,919.098,VALID,0.0,VALID,95.995,VALID,0.002,VALID,20.007,VALID,258.0,VALID,0.043,
2017-04-05, 00:26:07,VALID,919.092,VALID,0.0,VALID,95.854,VALID,0.003,VALID,19.97,VALID,258.0,VALID,0.062,
2017-04-05, 00:27:07,VALID,919.09,VALID,0.2,VALID,95.98,VALID,0.022,VALID,19.953,VALID,264.0,VALID,0.089,
2017-04-05, 00:28:07,VALID,919.078,VALID,0.0,VALID,95.982,VALID,0.019,VALID,19.939,VALID,268.0,VALID,0.0,
2017-04-05, 00:29:07,VALID,919.068,VALID,0.0,VALID,96.158,VALID,0.038,VALID,19.935,VALID,250.0,VALID,0.017,
2017-04-05, 00:30:07,VALID,919.051,VALID,0.0,VALID,96.228,VALID,0.024,VALID,19.926,VALID,234.0,VALID,0.126,
2017-04-05, 00:31:07,VALID,919.052,VALID,0.0,VALID,96.492,VALID,0.024,VALID,19.907,VALID,234.0,VALID,0.121,
2017-04-05, 00:32:07,VALID,919.058,VALID,0.0,VALID,96.795,VALID,0.026,VALID,19.899,VALID,234.0,VALID,0.0,
2017-04-05, 00:33:07,VALID,919.027,VALID,0.0,VALID,96.94,VALID,0.022,VALID,19.893,VALID,234.0,VALID,0.0,
2017-04-05, 00:34:06,VALID,919.009,VALID,0.0,VALID,96.88,VALID,0.027,VALID,19.864,VALID,235.0,VALID,0.09,
2017-04-05, 00:35:06,VALID,919.006,VALID,0.0,VALID,96.936,VALID,0.014,VALID,19.842,VALID,253.0,VALID,0.204,
2017-04-05, 00:36:06,VALID,918.994,VALID,0.0,VALID,97.059,VALID,-0.01,VALID,19.831,VALID,254.0,VALID,0.072,
2017-04-05, 00:37:06,VALID,918.958,VALID,0.0,VALID,97.167,VALID,-0.002,VALID,19.829,VALID,252.0,VALID,0.0,
2017-04-05, 00:38:06,VALID,918.926,VALID,0.0,VALID,97.25,VALID,0.023,VALID,19.834,VALID,255.0,VALID,0.02,
2017-04-05, 00:39:06,VALID,918.89,VALID,0.0,VALID,97.208,VALID,0.013,VALID,19.823,VALID,260.0,VALID,0.049,
2017-04-05, 00:40:06,VALID,918.846,VALID,0.0,VALID,97.353,VALID,0.007,VALID,19.851,VALID,262.0,VALID,0.046,
2017-04-05, 00:41:06,VALID,918.834,VALID,0.0,VALID,97.206,VALID,0.014,VALID,19.84,VALID,246.0,VALID,0.179,
2017-04-05, 00:42:06,VALID,918.809,VALID,0.0,VALID,97.09,VALID,0.015,VALID,19.817,VALID,243.0,VALID,0.352,
2017-04-05, 00:43:06,VALID,918.787,VALID,0.0,VALID,96.985,VALID,0.018,VALID,19.771,VALID,244.0,VALID,0.36,
2017-04-05, 00:44:06,VALID,918.786,VALID,0.0,VALID,97.106,VALID,0.018,VALID,19.755,VALID,245.0,VALID,0.152,
2017-04-05, 00:45:06,VALID,918.794,VALID,0.0,VALID,97.223,VALID,0.004,VALID,19.752,VALID,248.0,VALID,0.132,
2017-04-05, 00:46:06,VALID,918.778,VALID,0.0,VALID,97.311,VALID,0.018,VALID,19.753,VALID,249.0,VALID,0.0,
2017-04-05, 00:47:06,VALID,918.766,VALID,0.0,VALID,97.422,VALID,0.026,VALID,19.766,VALID,268.0,VALID,0.059,
2017-04-05, 00:48:06,VALID,918.776,VALID,0.0,VALID,97.449,VALID,0.018,VALID,19.779,VALID,287.0,VALID,0.045,
2017-04-05, 00:49:06,VALID,918.771,VALID,0.0,VALID,97.527,VALID,0.016,VALID,19.789,VALID,303.0,VALID,0.143,
2017-04-05, 00:50:06,VALID,918.774,VALID,0.0,VALID,97.411,VALID,0.009,VALID,19.771,VALID,320.0,VALID,0.139,
2017-04-05, 00:51:06,VALID,918.75,VALID,0.0,VALID,97.393,VALID,-0.022,VALID,19.744,VALID,336.0,VALID,0.292,
2017-04-05, 00:52:06,VALID,918.724,VALID,0.0,VALID,97.526,VALID,-0.019,VALID,19.77,VALID,359.0,VALID,0.389,
2017-04-05, 00:53:06,VALID,918.701,VALID,0.0,VALID,97.551,VALID,-0.024,VALID,19.769,VALID,20.0,VALID,0.512,
2017-04-05, 00:54:06,VALID,918.676,VALID,0.2,VALID,97.572,VALID,-0.038,VALID,19.77,VALID,24.0,VALID,0.558,
2017-04-05, 00:55:06,VALID,918.663,VALID,0.0,VALID,97.53,VALID,-0.035,VALID,19.755,VALID,33.0,VALID,0.551,
2017-04-05, 00:56:06,VALID,918.651,VALID,0.0,VALID,97.633,VALID,-0.025,VALID,19.782,VALID,16.0,VALID,0.46,
2017-04-05, 00:57:06,VALID,918.635,VALID,0.0,VALID,97.546,VALID,-0.014,VALID,19.759,VALID,7.0,VALID,0.419,
2017-04-05, 00:58:06,VALID,918.611,VALID,0.0,VALID,97.372,VALID,-0.025,VALID,19.691,VALID,15.0,VALID,0.384,
2017-04-05, 00:59:06,VALID,918.567,VALID,0.0,VALID,97.433,VALID,-0.022,VALID,19.679,VALID,12.0,VALID,0.51,
2017-04-05, 01:00:06,VALID,918.532,VALID,0.0,VALID,97.504,VALID,-0.029,VALID,19.677,VALID,8.0,VALID,0.807,
2017-04-05, 01:01:06,VALID,918.509,VALID,0.0,VALID,97.536,VALID,-0.018,VALID,19.671,VALID,10.0,VALID,0.615,
2017-04-05, 01:02:06,VALID,918.477,VALID,0.0,VALID,97.599,VALID,-0.033,VALID,19.681,VALID,15.0,VALID,0.504,
2017-04-05, 01:03:06,VALID,918.451,VALID,0.0,VALID,97.539,VALID,-0.03,VALID,19.659,VALID,14.0,VALID,0.629,
2017-04-05, 01:04:06,VALID,918.436,VALID,0.0,VALID,97.555,VALID,-0.029,VALID,19.649,VALID,1.0,VALID,0.421,
2017-04-05, 01:05:06,VALID,918.42,VALID,0.0,VALID,97.621,VALID,-0.03,VALID,19.662,VALID,356.0,VALID,0.072,
2017-04-05, 01:06:06,VALID,918.411,VALID,0.0,VALID,97.658,VALID,-0.012,VALID,19.684,VALID,286.0,VALID,0.119,
2017-04-05, 01:07:06,VALID,918.401,VALID,0.0,VALID,97.628,VALID,-0.005,VALID,19.687,VALID,269.0,VALID,0.031,
2017-04-05, 01:08:06,VALID,918.386,VALID,0.0,VALID,97.573,VALID,-0.009,VALID,19.679,VALID,324.0,VALID,0.637,
2017-04-05, 01:09:06,VALID,918.384,VALID,0.0,VALID,97.542,VALID,-0.006,VALID,19.663,VALID,339.0,VALID,0.525,
2017-04-05, 01:10:06,VALID,918.372,VALID,0.0,VALID,97.581,VALID,-0.021,VALID,19.659,VALID,358.0,VALID,0.657,
2017-04-05, 01:11:06,VALID,918.357,VALID,0.0,VALID,97.61,VALID,-0.003,VALID,19.666,VALID,348.0,VALID,0.639,
2017-04-05, 01:12:06,VALID,918.338,VALID,0.0,VALID,97.682,VALID,-0.015,VALID,19.682,VALID,341.0,VALID,0.075,
2017-04-05, 01:13:06,VALID,918.315,VALID,0.0,VALID,97.683,VALID,0.003,VALID,19.679,VALID,221.0,VALID,0.076,
2017-04-05, 01:14:06,VALID,918.287,VALID,0.0,VALID,97.658,VALID,-0.005,VALID,19.662,VALID,196.0,VALID,0.012,
2017-04-05, 01:15:06,VALID,918.279,VALID,0.0,VALID,97.7,VALID,-0.012,VALID,19.666,VALID,235.0,VALID,0.003,
2017-04-05, 01:16:06,VALID,918.272,VALID,0.0,VALID,97.813,VALID,-0.032,VALID,19.71,VALID,281.0,VALID,0.06,
2017-04-05, 01:17:06,VALID,918.249,VALID,0.0,VALID,97.719,VALID,-0.022,VALID,19.692,VALID,311.0,VALID,0.089,
2017-04-05, 01:18:06,VALID,918.23,VALID,0.0,VALID,97.654,VALID,-0.009,VALID,19.655,VALID,329.0,VALID,0.214,
2017-04-05, 01:19:06,VALID,918.203,VALID,0.0,VALID,97.74,VALID,-0.018,VALID,19.664,VALID,340.0,VALID,0.336,
2017-04-05, 01:20:06,VALID,918.197,VALID,0.0,VALID,97.853,VALID,-0.013,VALID,19.711,VALID,4.0,VALID,0.441,
2017-04-05, 01:21:06,VALID,918.175,VALID,0.0,VALID,97.851,VALID,0.013,VALID,19.723,VALID,5.0,VALID,0.346,
2017-04-05, 01:22:06,VALID,918.16,VALID,0.0,VALID,97.873,VALID,0.018,VALID,19.743,VALID,8.0,VALID,0.396,
2017-04-05, 01:23:06,VALID,918.146,VALID,0.0,VALID,97.859,VALID,0.019,VALID,19.725,VALID,12.0,VALID,0.08,
2017-04-05, 01:24:06,VALID,918.136,VALID,0.0,VALID,97.837,VALID,0.012,VALID,19.718,VALID,348.0,VALID,0.105,
2017-04-05, 01:25:06,VALID,918.093,VALID,0.0,VALID,97.742,VALID,0.027,VALID,19.669,VALID,11.0,VALID,0.69,
2017-04-05, 01:26:06,VALID,918.065,VALID,0.0,VALID,97.763,VALID,0.013,VALID,19.651,VALID,23.0,VALID,0.949,
2017-04-05, 01:27:06,VALID,918.036,VALID,0.0,VALID,97.752,VALID,0.015,VALID,19.632,VALID,31.0,VALID,0.962,
2017-04-05, 01:28:06,VALID,918.027,VALID,0.0,VALID,97.754,VALID,0.024,VALID,19.62,VALID,17.0,VALID,0.928,
2017-04-05, 01:29:06,VALID,918.011,VALID,0.0,VALID,97.78,VALID,0.022,VALID,19.615,VALID,6.0,VALID,0.789,
2017-04-05, 01:30:06,VALID,917.978,VALID,0.0,VALID,97.753,VALID,0.003,VALID,19.61,VALID,8.0,VALID,0.881,
2017-04-05, 01:31:06,VALID,917.954,VALID,0.0,VALID,97.757,VALID,0.012,VALID,19.609,VALID,360.0,VALID,0.976,
2017-04-05, 01:32:06,VALID,917.925,VALID,0.0,VALID,97.763,VALID,0.014,VALID,19.608,VALID,1.0,VALID,0.991,
2017-04-05, 01:33:06,VALID,917.895,VALID,0.0,VALID,97.741,VALID,0.022,VALID,19.609,VALID,11.0,VALID,0.616,
2017-04-05, 01:34:06,VALID,917.893,VALID,0.0,VALID,97.792,VALID,0.004,VALID,19.635,VALID,331.0,VALID,0.33,
2017-04-05, 01:35:06,VALID,917.876,VALID,0.0,VALID,97.789,VALID,0.01,VALID,19.646,VALID,303.0,VALID,0.291,
2017-04-05, 01:36:06,VALID,917.853,VALID,0.0,VALID,97.741,VALID,-0.029,VALID,19.646,VALID,315.0,VALID,0.234,
2017-04-05, 01:37:06,VALID,917.837,VALID,0.0,VALID,97.813,VALID,-0.04,VALID,19.677,VALID,315.0,VALID,0.116,
2017-04-05, 01:38:06,VALID,917.818,VALID,0.0,VALID,97.816,VALID,-0.04,VALID,19.694,VALID,316.0,VALID,0.33,
2017-04-05, 01:39:06,VALID,917.8,VALID,0.0,VALID,97.772,VALID,-0.039,VALID,19.695,VALID,331.0,VALID,0.433,
2017-04-05, 01:40:06,VALID,917.782,VALID,0.0,VALID,97.709,VALID,-0.031,VALID,19.685,VALID,351.0,VALID,0.571,
2017-04-05, 01:41:06,VALID,917.785,VALID,0.0,VALID,97.688,VALID,-0.027,VALID,19.681,VALID,342.0,VALID,0.505,
2017-04-05, 01:42:06,VALID,917.789,VALID,0.0,VALID,97.682,VALID,-0.037,VALID,19.685,VALID,358.0,VALID,0.455,
2017-04-05, 01:43:06,VALID,917.806,VALID,0.0,VALID,97.667,VALID,-0.035,VALID,19.689,VALID,333.0,VALID,0.696,
2017-04-05, 01:44:06,VALID,917.805,VALID,0.0,VALID,97.637,VALID,-0.028,VALID,19.692,VALID,278.0,VALID,0.352,
2017-04-05, 01:45:06,VALID,917.803,VALID,0.0,VALID,97.689,VALID,-0.031,VALID,19.723,VALID,263.0,VALID,0.192,
2017-04-05, 01:46:06,VALID,917.782,VALID,0.0,VALID,97.688,VALID,-0.043,VALID,19.722,VALID,277.0,VALID,0.334,
2017-04-05, 01:47:06,VALID,917.777,VALID,0.0,VALID,97.632,VALID,-0.033,VALID,19.705,VALID,328.0,VALID,0.244,
2017-04-05, 01:48:06,VALID,917.763,VALID,0.0,VALID,97.641,VALID,-0.031,VALID,19.702,VALID,341.0,VALID,0.093,
2017-04-05, 01:49:06,VALID,917.748,VALID,0.0,VALID,97.709,VALID,-0.022,VALID,19.724,VALID,341.0,VALID,0.0,
2017-04-05, 01:50:06,VALID,917.736,VALID,0.0,VALID,97.692,VALID,-0.012,VALID,19.731,VALID,341.0,VALID,0.008,
2017-04-05, 01:51:06,VALID,917.707,VALID,0.0,VALID,97.698,VALID,-0.006,VALID,19.733,VALID,326.0,VALID,0.162,
2017-04-05, 01:52:06,VALID,917.702,VALID,0.0,VALID,97.767,VALID,-0.006,VALID,19.756,VALID,330.0,VALID,0.136,
2017-04-05, 01:53:06,VALID,917.695,VALID,0.0,VALID,97.652,VALID,-0.0,VALID,19.721,VALID,324.0,VALID,0.154,
2017-04-05, 01:54:06,VALID,917.674,VALID,0.0,VALID,97.593,VALID,-0.012,VALID,19.68,VALID,348.0,VALID,0.314,
2017-04-05, 01:55:06,VALID,917.662,VALID,0.0,VALID,97.706,VALID,-0.013,VALID,19.693,VALID,353.0,VALID,0.221,
2017-04-05, 01:56:06,VALID,917.647,VALID,0.0,VALID,97.83,VALID,-0.025,VALID,19.732,VALID,317.0,VALID,0.103,
2017-04-05, 01:57:06,VALID,917.651,VALID,0.0,VALID,97.788,VALID,-0.023,VALID,19.728,VALID,276.0,VALID,0.031,
2017-04-05, 01:58:06,VALID,917.655,VALID,0.0,VALID,97.76,VALID,-0.013,VALID,19.717,VALID,309.0,VALID,0.056,
2017-04-05, 01:59:06,VALID,917.651,VALID,0.0,VALID,97.716,VALID,-0.017,VALID,19.696,VALID,309.0,VALID,0.004,
2017-04-05, 02:00:06,VALID,917.652,VALID,0.0,VALID,97.781,VALID,-0.003,VALID,19.704,VALID,7.0,VALID,0.153,
2017-04-05, 02:01:06,VALID,917.652,VALID,0.0,VALID,97.826,VALID,-0.015,VALID,19.724,VALID,35.0,VALID,0.073,
2017-04-05, 02:02:06,VALID,917.661,VALID,0.0,VALID,97.817,VALID,-0.002,VALID,19.725,VALID,13.0,VALID,0.164,
2017-04-05, 02:03:06,VALID,917.663,VALID,0.0,VALID,97.863,VALID,-0.025,VALID,19.742,VALID,339.0,VALID,0.004,
2017-04-05, 02:04:06,VALID,917.648,VALID,0.0,VALID,97.815,VALID,-0.025,VALID,19.745,VALID,338.0,VALID,0.0,
2017-04-05, 02:05:06,VALID,917.642,VALID,0.0,VALID,97.778,VALID,-0.002,VALID,19.743,VALID,338.0,VALID,0.0,
2017-04-05, 02:06:06,VALID,917.634,VALID,0.0,VALID,97.814,VALID,0.012,VALID,19.752,VALID,306.0,VALID,0.0,
2017-04-05, 02:07:06,VALID,917.63,VALID,0.0,VALID,97.803,VALID,0.002,VALID,19.756,VALID,296.0,VALID,0.0,
2017-04-05, 02:08:06,VALID,917.618,VALID,0.0,VALID,97.805,VALID,-0.0,VALID,19.754,VALID,324.0,VALID,0.217,
2017-04-05, 02:09:06,VALID,917.597,VALID,0.0,VALID,97.835,VALID,0.008,VALID,19.764,VALID,15.0,VALID,0.723,
2017-04-05, 02:10:06,VALID,917.616,VALID,0.0,VALID,97.821,VALID,0.013,VALID,19.765,VALID,356.0,VALID,0.386,
2017-04-05, 02:11:06,VALID,917.624,VALID,0.0,VALID,97.782,VALID,0.001,VALID,19.747,VALID,354.0,VALID,0.015,
2017-04-05, 02:12:06,VALID,917.625,VALID,0.0,VALID,97.81,VALID,-0.006,VALID,19.75,VALID,222.0,VALID,0.137,
2017-04-05, 02:13:06,VALID,917.626,VALID,0.0,VALID,97.795,VALID,0.009,VALID,19.745,VALID,210.0,VALID,0.096,
2017-04-05, 02:14:06,VALID,917.634,VALID,0.0,VALID,97.829,VALID,0.015,VALID,19.738,VALID,238.0,VALID,0.007,
2017-04-05, 02:15:06,VALID,917.648,VALID,0.0,VALID,97.819,VALID,0.002,VALID,19.737,VALID,261.0,VALID,0.084,
2017-04-05, 02:16:06,VALID,917.642,VALID,0.0,VALID,97.837,VALID,-0.001,VALID,19.735,VALID,261.0,VALID,0.027,
2017-04-05, 02:17:06,VALID,917.61,VALID,0.0,VALID,97.853,VALID,0.003,VALID,19.739,VALID,261.0,VALID,0.0,
2017-04-05, 02:18:06,VALID,917.591,VALID,0.0,VALID,97.909,VALID,0.021,VALID,19.762,VALID,294.0,VALID,0.126,
2017-04-05, 02:19:06,VALID,917.586,VALID,0.0,VALID,97.87,VALID,0.009,VALID,19.758,VALID,309.0,VALID,0.002,
2017-04-05, 02:20:06,VALID,917.579,VALID,0.0,VALID,97.872,VALID,0.019,VALID,19.762,VALID,309.0,VALID,0.0,
2017-04-05, 02:21:06,VALID,917.598,VALID,0.0,VALID,97.891,VALID,-0.0,VALID,19.771,VALID,309.0,VALID,0.0,
2017-04-05, 02:22:06,VALID,917.597,VALID,0.0,VALID,97.893,VALID,-0.015,VALID,19.784,VALID,309.0,VALID,0.0,
2017-04-05, 02:23:06,VALID,917.586,VALID,0.0,VALID,97.912,VALID,-0.018,VALID,19.802,VALID,309.0,VALID,0.0,
2017-04-05, 02:24:06,VALID,917.57,VALID,0.0,VALID,97.914,VALID,-0.008,VALID,19.813,VALID,309.0,VALID,0.0,
2017-04-05, 02:25:06,VALID,917.546,VALID,0.0,VALID,97.887,VALID,-0.014,VALID,19.816,VALID,309.0,VALID,0.05,
2017-04-05, 02:26:06,VALID,917.533,VALID,0.0,VALID,97.881,VALID,-0.019,VALID,19.829,VALID,309.0,VALID,0.093,
2017-04-05, 02:27:06,VALID,917.504,VALID,0.0,VALID,97.908,VALID,-0.022,VALID,19.845,VALID,323.0,VALID,0.132,
2017-04-05, 02:28:06,VALID,917.484,VALID,0.0,VALID,97.899,VALID,-0.002,VALID,19.861,VALID,348.0,VALID,0.193,
2017-04-05, 02:29:06,VALID,917.474,VALID,0.0,VALID,97.886,VALID,-0.017,VALID,19.884,VALID,351.0,VALID,0.114,
2017-04-05, 02:30:06,VALID,917.463,VALID,0.0,VALID,97.899,VALID,-0.001,VALID,19.904,VALID,351.0,VALID,0.16,
2017-04-05, 02:31:06,VALID,917.471,VALID,0.0,VALID,97.809,VALID,-0.008,VALID,19.878,VALID,357.0,VALID,0.16,
2017-04-05, 02:32:06,VALID,917.462,VALID,0.0,VALID,97.764,VALID,-0.01,VALID,19.867,VALID,7.0,VALID,0.035,
2017-04-05, 02:33:06,VALID,917.456,VALID,0.0,VALID,97.74,VALID,-0.013,VALID,19.865,VALID,7.0,VALID,0.0,
2017-04-05, 02:34:06,VALID,917.438,VALID,0.0,VALID,97.766,VALID,-0.014,VALID,19.885,VALID,30.0,VALID,0.358,
2017-04-05, 02:35:06,VALID,917.439,VALID,0.0,VALID,97.799,VALID,-0.0,VALID,19.91,VALID,35.0,VALID,0.14,
2017-04-05, 02:36:06,VALID,917.46,VALID,0.0,VALID,97.737,VALID,0.037,VALID,19.92,VALID,36.0,VALID,0.013,
2017-04-05, 02:37:06,VALID,917.463,VALID,0.0,VALID,97.615,VALID,0.037,VALID,19.895,VALID,36.0,VALID,0.0,
2017-04-05, 02:38:06,VALID,917.471,VALID,0.0,VALID,97.573,VALID,0.024,VALID,19.877,VALID,36.0,VALID,0.0,
2017-04-05, 02:39:06,VALID,917.469,VALID,0.0,VALID,97.551,VALID,0.031,VALID,19.875,VALID,36.0,VALID,0.129,
2017-04-05, 02:40:06,VALID,917.475,VALID,0.0,VALID,97.524,VALID,0.036,VALID,19.878,VALID,31.0,VALID,0.284,
2017-04-05, 02:41:06,VALID,917.504,VALID,0.0,VALID,97.546,VALID,0.034,VALID,19.901,VALID,359.0,VALID,0.323,
2017-04-05, 02:42:06,VALID,917.515,VALID,0.0,VALID,97.354,VALID,0.035,VALID,19.862,VALID,343.0,VALID,0.307,
2017-04-05, 02:43:06,VALID,917.524,VALID,0.0,VALID,97.28,VALID,0.026,VALID,19.838,VALID,9.0,VALID,0.234,
2017-04-05, 02:44:06,VALID,917.525,VALID,0.0,VALID,97.258,VALID,0.029,VALID,19.828,VALID,344.0,VALID,0.053,
2017-04-05, 02:45:06,VALID,917.522,VALID,0.0,VALID,97.381,VALID,0.025,VALID,19.86,VALID,335.0,VALID,0.0,
2017-04-05, 02:46:06,VALID,917.512,VALID,0.0,VALID,97.358,VALID,0.018,VALID,19.874,VALID,310.0,VALID,0.083,
2017-04-05, 02:47:06,VALID,917.513,VALID,0.0,VALID,97.352,VALID,0.016,VALID,19.873,VALID,309.0,VALID,0.003,
2017-04-05, 02:48:06,VALID,917.517,VALID,0.0,VALID,97.449,VALID,0.019,VALID,19.894,VALID,309.0,VALID,0.012,
2017-04-05, 02:49:06,VALID,917.512,VALID,0.0,VALID,97.395,VALID,0.042,VALID,19.89,VALID,315.0,VALID,0.237,
2017-04-05, 02:50:06,VALID,917.53,VALID,0.0,VALID,97.23,VALID,0.022,VALID,19.858,VALID,315.0,VALID,0.352,
2017-04-05, 02:51:06,VALID,917.538,VALID,0.0,VALID,97.396,VALID,0.002,VALID,19.877,VALID,275.0,VALID,0.005,
2017-04-05, 02:52:06,VALID,917.524,VALID,0.0,VALID,97.405,VALID,0.015,VALID,19.889,VALID,275.0,VALID,0.002,
2017-04-05, 02:53:06,VALID,917.5,VALID,0.0,VALID,97.329,VALID,0.009,VALID,19.866,VALID,308.0,VALID,0.166,
2017-04-05, 02:54:06,VALID,917.492,VALID,0.0,VALID,97.31,VALID,0.009,VALID,19.839,VALID,356.0,VALID,0.453,
2017-04-05, 02:55:06,VALID,917.488,VALID,0.0,VALID,97.389,VALID,0.036,VALID,19.839,VALID,5.0,VALID,0.395,
2017-04-05, 02:56:06,VALID,917.495,VALID,0.0,VALID,97.526,VALID,0.016,VALID,19.855,VALID,359.0,VALID,0.251,
2017-04-05, 02:57:06,VALID,917.523,VALID,0.0,VALID,97.547,VALID,0.028,VALID,19.851,VALID,333.0,VALID,0.167,
2017-04-05, 02:58:06,VALID,917.531,VALID,0.0,VALID,97.48,VALID,0.009,VALID,19.828,VALID,314.0,VALID,0.125,
2017-04-05, 02:59:06,VALID,917.555,VALID,0.0,VALID,97.52,VALID,0.013,VALID,19.827,VALID,312.0,VALID,0.0,
2017-04-05, 03:00:06,VALID,917.548,VALID,0.0,VALID,97.59,VALID,0.017,VALID,19.843,VALID,312.0,VALID,0.0,
2017-04-05, 03:01:06,VALID,917.528,VALID,0.0,VALID,97.604,VALID,0.022,VALID,19.855,VALID,342.0,VALID,0.12,
2017-04-05, 03:02:06,VALID,917.531,VALID,0.0,VALID,97.645,VALID,0.01,VALID,19.868,VALID,357.0,VALID,0.258,
2017-04-05, 03:03:06,VALID,917.541,VALID,0.0,VALID,97.653,VALID,0.017,VALID,19.886,VALID,353.0,VALID,0.125,
2017-04-05, 03:04:06,VALID,917.529,VALID,0.0,VALID,97.637,VALID,0.012,VALID,19.888,VALID,352.0,VALID,0.02,
2017-04-05, 03:05:06,VALID,917.514,VALID,0.0,VALID,97.526,VALID,0.006,VALID,19.859,VALID,305.0,VALID,0.043,
2017-04-05, 03:06:06,VALID,917.506,VALID,0.0,VALID,97.558,VALID,-0.007,VALID,19.863,VALID,304.0,VALID,0.01,
2017-04-05, 03:07:06,VALID,917.509,VALID,0.0,VALID,97.576,VALID,0.007,VALID,19.869,VALID,304.0,VALID,0.032,
2017-04-05, 03:08:06,VALID,917.508,VALID,0.0,VALID,97.51,VALID,-0.01,VALID,19.849,VALID,336.0,VALID,0.113,
2017-04-05, 03:09:06,VALID,917.512,VALID,0.0,VALID,97.552,VALID,-0.013,VALID,19.857,VALID,344.0,VALID,0.002,
2017-04-05, 03:10:06,VALID,917.524,VALID,0.0,VALID,97.522,VALID,0.002,VALID,19.858,VALID,323.0,VALID,0.105,
2017-04-05, 03:11:06,VALID,917.529,VALID,0.0,VALID,97.504,VALID,0.01,VALID,19.855,VALID,320.0,VALID,0.005,
2017-04-05, 03:12:06,VALID,917.532,VALID,0.0,VALID,97.391,VALID,0.016,VALID,19.819,VALID,340.0,VALID,0.198,
2017-04-05, 03:13:06,VALID,917.551,VALID,0.0,VALID,97.398,VALID,0.007,VALID,19.818,VALID,8.0,VALID,0.373,
2017-04-05, 03:14:06,VALID,917.557,VALID,0.0,VALID,97.525,VALID,-0.006,VALID,19.856,VALID,355.0,VALID,0.139,
2017-04-05, 03:15:06,VALID,917.569,VALID,0.0,VALID,97.362,VALID,0.005,VALID,19.835,VALID,328.0,VALID,0.097,
2017-04-05, 03:16:06,VALID,917.591,VALID,0.0,VALID,97.398,VALID,0.002,VALID,19.844,VALID,328.0,VALID,0.005,
2017-04-05, 03:17:06,VALID,917.611,VALID,0.0,VALID,97.189,VALID,-0.011,VALID,19.81,VALID,328.0,VALID,0.0,
2017-04-05, 03:18:06,VALID,917.601,VALID,0.0,VALID,97.196,VALID,-0.008,VALID,19.81,VALID,330.0,VALID,0.084,
2017-04-05, 03:19:06,VALID,917.612,VALID,0.0,VALID,97.186,VALID,-0.001,VALID,19.819,VALID,14.0,VALID,0.381,
2017-04-05, 03:20:06,VALID,917.62,VALID,0.0,VALID,97.3,VALID,-0.012,VALID,19.846,VALID,13.0,VALID,0.4,
2017-04-05, 03:21:06,VALID,917.619,VALID,0.0,VALID,97.246,VALID,-0.004,VALID,19.84,VALID,2.0,VALID,0.3,
2017-04-05, 03:22:06,VALID,917.642,VALID,0.0,VALID,97.236,VALID,0.007,VALID,19.835,VALID,2.0,VALID,0.068,
2017-04-05, 03:23:06,VALID,917.64,VALID,0.0,VALID,97.357,VALID,0.014,VALID,19.85,VALID,2.0,VALID,0.313,
2017-04-05, 03:24:06,VALID,917.648,VALID,0.0,VALID,97.262,VALID,-0.01,VALID,19.828,VALID,358.0,VALID,0.522,
2017-04-05, 03:25:06,VALID,917.642,VALID,0.0,VALID,97.243,VALID,-0.01,VALID,19.822,VALID,355.0,VALID,0.536,
2017-04-05, 03:26:06,VALID,917.645,VALID,0.0,VALID,97.308,VALID,0.002,VALID,19.842,VALID,357.0,VALID,0.685,
2017-04-05, 03:27:06,VALID,917.672,VALID,0.0,VALID,97.151,VALID,-0.007,VALID,19.826,VALID,345.0,VALID,0.5,
2017-04-05, 03:28:06,VALID,917.691,VALID,0.0,VALID,97.041,VALID,-0.0,VALID,19.806,VALID,320.0,VALID,0.578,
2017-04-05, 03:29:06,VALID,917.685,VALID,0.0,VALID,96.896,VALID,0.001,VALID,19.789,VALID,347.0,VALID,0.358,
2017-04-05, 03:30:06,VALID,917.672,VALID,0.0,VALID,96.982,VALID,-0.007,VALID,19.815,VALID,358.0,VALID,0.474,
2017-04-05, 03:31:06,VALID,917.679,VALID,0.0,VALID,97.105,VALID,-0.0,VALID,19.849,VALID,6.0,VALID,0.35,
2017-04-05, 03:32:06,VALID,917.659,VALID,0.0,VALID,97.117,VALID,-0.005,VALID,19.843,VALID,9.0,VALID,0.633,
2017-04-05, 03:33:06,VALID,917.635,VALID,0.0,VALID,97.183,VALID,-0.006,VALID,19.854,VALID,9.0,VALID,0.755,
2017-04-05, 03:34:06,VALID,917.637,VALID,0.0,VALID,97.219,VALID,-0.017,VALID,19.848,VALID,10.0,VALID,0.148,
2017-04-05, 03:35:06,VALID,917.629,VALID,0.0,VALID,97.227,VALID,-0.021,VALID,19.848,VALID,360.0,VALID,0.109,
2017-04-05, 03:36:06,VALID,917.622,VALID,0.0,VALID,97.195,VALID,-0.015,VALID,19.827,VALID,334.0,VALID,0.461,
2017-04-05, 03:37:06,VALID,917.605,VALID,0.0,VALID,97.236,VALID,-0.004,VALID,19.817,VALID,1.0,VALID,0.468,
2017-04-05, 03:38:06,VALID,917.569,VALID,0.0,VALID,97.288,VALID,-0.016,VALID,19.826,VALID,17.0,VALID,0.717,
2017-04-05, 03:39:06,VALID,917.568,VALID,0.0,VALID,97.361,VALID,-0.024,VALID,19.84,VALID,24.0,VALID,0.662,